Home > Weather > Luckenwalde > Past weeks

Flag for Germany Past Weather in Luckenwalde, Brandenburg, Germany — Yesterday and Last 2 Weeks

Now
57 °F

Light rain. Partly cloudy.


Feels Like: 57 °F
Forecast: 54 / 72 °F
Wind: 2 mph from North

Location: Holzdorf

Current Time: Jun 29, 2016 at 5:45:06 AM

Latest Report: Jun 29, 2016 at 4:20 AM


Visibility: N/A

Pressure: 29.89 "Hg

Humidity: 82%

Dew Point: 52 °F

Location of LuckenwaldeLocation

Past Weather in Luckenwalde — Graph

°F

Luckenwalde Temperature Yesterday

Maximum temperature yesterday: 73 °F (at 3:20 PM)
Minimum temperature yesterday: 59 °F (at 12:20 AM)
Average temperature yesterday: 66 °F

High & Low Weather Summary for the Past Weeks

 TemperatureHumidityPressure
High93 °F (Jun 24, 4:20 PM)100% (Jun 14, 4:20 AM)30.24 "Hg (Jun 14, 4:20 AM)
Low46 °F (Jun 20, 5:20 AM)32% (Jun 24, 3:20 PM)29.50 "Hg (Jun 14, 1:20 PM)
Average66 °F73%29.93 "Hg
* Reported Jun 14 4:01 AM — Jun 29 4:20 AM, Luckenwalde, Weather by CustomWeather, © 2016

Note: Actual official high and low records may vary slightly from our data, if they occured in-between our weather recording intervals... More about our weather records

Advertising

Luckenwalde Weather History for the Previous 24 Hours

Scroll right to see more
 ConditionsComfort  
Time TempWeatherWind HumidityBarometerVisibility
4:20 AM
Wed, Jun 29
57 °FLight rain. Partly cloudy.2 mph82%29.89 "HgN/A
3:20 AM57 °FPassing clouds.5 mph77%29.92 "HgN/A
2:20 AM55 °FPassing clouds.3 mph82%29.92 "HgN/A
1:20 AM57 °FPassing clouds.3 mph77%29.95 "HgN/A
12:20 AM59 °FPassing clouds.1 mph72%29.98 "HgN/A
11:20 PM
Tue, Jun 28
61 °FPartly cloudy.2 mph68%29.98 "HgN/A
10:20 PM61 °FBroken clouds.No wind68%29.98 "HgN/A
9:20 PM64 °FScattered clouds.2 mph60%29.98 "HgN/A
8:20 PM72 °FBroken clouds.3 mph41%30.01 "HgN/A
7:20 PM73 °FPartly sunny.5 mph38%30.01 "HgN/A
6:20 PM73 °FScattered clouds.5 mph36%30.01 "HgN/A
5:20 PM73 °FPassing clouds.8 mph36%30.01 "HgN/A
4:20 PM73 °FPassing clouds.9 mph36%30.01 "HgN/A
3:20 PM73 °FPassing clouds.12 mph38%30.04 "HgN/A
2:20 PM72 °FPassing clouds.10 mph41%30.04 "HgN/A
1:20 PM72 °FPassing clouds.8 mph47%30.07 "HgN/A
12:20 PM70 °FScattered clouds.8 mph50%30.07 "HgN/A
11:20 AM68 °FBroken clouds.12 mph53%30.07 "HgN/A
10:20 AM68 °FScattered clouds.10 mph56%30.07 "HgN/A
9:20 AM66 °FScattered clouds.10 mph68%30.07 "HgN/A
8:20 AM64 °FBroken clouds.9 mph83%30.04 "HgN/A
7:20 AM63 °FBroken clouds.8 mph83%30.04 "HgN/A
6:20 AM61 °FPartly sunny.5 mph88%30.04 "HgN/A
5:20 AM59 °FPassing clouds.3 mph94%30.04 "HgN/A
Weather by CustomWeather, © 2016

See weather overviewHow to use our weather pages